DAL364 KDTW-KBZN

Flight info

Callsign DAL364
Flight time N/A
Altitude 34000
Route MIGGY3 SLLAP CEWDA Q812 WELOK KP06A KU06W CREKK POWDA2
Aircraft B738/M-SDE2E3FGHIRWXY/LB1

Departure

Time N/A
Airport Detroit Metropolitan Wayne County Airport (KDTW)

Arrival

Time 2026-04-27 20:00
Airport Bozeman Yellowstone International Airport (KBZN)
Time Latitude Longitude Altitude Speed Heading
2026-04-27 19:41 45.99089 -109.69854 22416 ft 404 kts 264°
2026-04-27 19:41 45.98918 -109.73818 21755 ft 400 kts 264°
2026-04-27 19:41 45.98745 -109.77788 21091 ft 396 kts 264°
2026-04-27 19:41 45.98572 -109.81723 20429 ft 392 kts 264°
2026-04-27 19:42 45.98400 -109.85622 19780 ft 389 kts 264°
2026-04-27 19:42 45.98227 -109.89491 19131 ft 386 kts 264°
2026-04-27 19:42 45.98055 -109.93331 18482 ft 383 kts 264°
2026-04-27 19:42 45.97881 -109.97136 18011 ft 377 kts 265°
2026-04-27 19:43 45.97714 -110.00816 17866 ft 362 kts 264°
2026-04-27 19:43 45.97553 -110.04365 17702 ft 349 kts 264°
2026-04-27 19:43 45.97396 -110.07780 17546 ft 336 kts 264°
2026-04-27 19:43 45.97244 -110.11078 17405 ft 325 kts 264°
2026-04-27 19:44 45.97096 -110.14261 17265 ft 314 kts 264°
2026-04-27 19:44 45.96951 -110.17337 17149 ft 303 kts 264°
2026-04-27 19:44 45.96824 -110.20318 17000 ft 295 kts 267°
2026-04-27 19:44 45.96900 -110.23208 16811 ft 292 kts 272°
2026-04-27 19:45 45.97093 -110.26122 16669 ft 296 kts 274°
2026-04-27 19:45 45.97309 -110.29098 16478 ft 302 kts 274°
2026-04-27 19:45 45.97522 -110.32108 16276 ft 302 kts 274°
2026-04-27 19:45 45.97723 -110.35097 16085 ft 299 kts 273°
2026-04-27 19:46 45.97914 -110.38071 15892 ft 297 kts 273°
2026-04-27 19:46 45.98098 -110.41017 15701 ft 296 kts 273°
2026-04-27 19:46 45.98279 -110.43961 15510 ft 294 kts 273°
2026-04-27 19:46 45.98456 -110.46876 15331 ft 293 kts 273°
2026-04-27 19:47 45.98629 -110.49792 15138 ft 293 kts 273°
2026-04-27 19:47 45.98802 -110.52705 14946 ft 292 kts 273°
2026-04-27 19:47 45.98974 -110.55616 14743 ft 292 kts 273°
2026-04-27 19:47 45.99146 -110.58519 14545 ft 291 kts 273°
2026-04-27 19:48 45.99315 -110.61411 14352 ft 290 kts 273°
2026-04-27 19:48 45.99483 -110.64292 14168 ft 289 kts 273°
2026-04-27 19:48 45.99649 -110.67164 13979 ft 288 kts 273°
2026-04-27 19:48 45.99814 -110.70029 13788 ft 287 kts 273°
2026-04-27 19:49 45.99978 -110.72891 13595 ft 286 kts 273°
2026-04-27 19:49 46.00141 -110.75749 13404 ft 286 kts 273°
2026-04-27 19:49 46.00300 -110.78560 13230 ft 286 kts 273°
2026-04-27 19:49 46.00462 -110.81405 13023 ft 285 kts 273°
2026-04-27 19:50 46.00622 -110.84244 12839 ft 284 kts 274°
2026-04-27 19:50 46.00782 -110.87076 12646 ft 284 kts 274°
2026-04-27 19:50 46.00940 -110.89905 12456 ft 284 kts 274°
2026-04-27 19:50 46.01097 -110.92733 12265 ft 283 kts 274°
2026-04-27 19:51 46.01251 -110.95557 12086 ft 281 kts 273°
2026-04-27 19:51 46.01405 -110.98349 11900 ft 281 kts 274°
2026-04-27 19:51 46.01561 -111.01148 11705 ft 280 kts 274°
2026-04-27 19:51 46.01718 -111.03945 11510 ft 281 kts 274°
2026-04-27 19:52 46.01870 -111.06744 11343 ft 281 kts 274°
2026-04-27 19:52 46.01972 -111.08604 11200 ft 282 kts 274°
2026-04-27 19:52 46.02121 -111.11430 11030 ft 283 kts 274°
2026-04-27 19:52 46.02147 -111.14281 10751 ft 286 kts 266°
2026-04-27 19:53 46.01889 -111.20031 10223 ft 290 kts 266°
2026-04-27 19:53 46.01772 -111.22923 9953 ft 289 kts 266°
2026-04-27 19:53 46.01629 -111.26725 9585 ft 284 kts 266°
2026-04-27 19:54 46.01538 -111.28632 9407 ft 282 kts 261°
2026-04-27 19:54 46.00946 -111.31306 9153 ft 278 kts 245°
2026-04-27 19:54 46.00045 -111.33748 8890 ft 275 kts 237°
2026-04-27 19:54 45.98957 -111.36016 8646 ft 276 kts 232°
2026-04-27 19:55 45.97780 -111.38088 8573 ft 259 kts 223°
2026-04-27 19:55 45.96284 -111.39210 8444 ft 241 kts 187°
2026-04-27 19:55 45.94731 -111.38804 8358 ft 222 kts 148°
2026-04-27 19:55 45.93641 -111.37377 8290 ft 205 kts 134°
2026-04-27 19:56 45.92650 -111.35946 8159 ft 202 kts 136°
2026-04-27 19:56 45.91637 -111.34528 7895 ft 204 kts 136°
2026-04-27 19:56 45.90636 -111.33095 7665 ft 202 kts 134°
2026-04-27 19:56 45.89655 -111.31662 7409 ft 201 kts 135°
2026-04-27 19:57 45.88665 -111.30240 7104 ft 202 kts 135°
2026-04-27 19:57 45.87651 -111.28830 6805 ft 202 kts 136°
2026-04-27 19:57 45.86640 -111.27464 6536 ft 198 kts 137°
2026-04-27 19:57 45.85657 -111.26138 6273 ft 187 kts 136°
2026-04-27 19:58 45.84763 -111.24910 6125 ft 167 kts 135°
2026-04-27 19:58 45.83959 -111.23758 5913 ft 161 kts 135°
2026-04-27 19:58 45.83181 -111.22625 5630 ft 158 kts 136°
2026-04-27 19:58 45.82373 -111.21562 5384 ft 158 kts 137°
2026-04-27 19:59 45.81574 -111.20505 5211 ft 156 kts 136°
2026-04-27 19:59 45.80804 -111.19418 5030 ft 154 kts 136°
2026-04-27 19:59 45.80028 -111.18337 4823 ft 155 kts 136°
2026-04-27 19:59 45.79253 -111.17262 4624 ft 155 kts 135°
2026-04-27 20:00 45.78489 -111.16200 4483 ft 147 kts 136°
2026-04-27 20:00 45.77898 -111.15383 4480 ft 87 kts 135°
2026-04-27 20:00 45.77620 -111.14995 4480 ft 35 kts 136°
2026-04-27 20:00 45.77524 -111.14917 4481 ft 12 kts 208°
2026-04-27 20:01 45.77464 -111.14999 4480 ft 12 kts 226°
2026-04-27 20:01 45.77415 -111.15086 4480 ft 11 kts 263°
2026-04-27 20:01 45.77449 -111.15167 4482 ft 10 kts 317°
2026-04-27 20:01 45.77497 -111.15233 4480 ft 10 kts 316°
2026-04-27 20:02 45.77551 -111.15307 4480 ft 12 kts 316°
2026-04-27 20:02 45.77618 -111.15401 4483 ft 15 kts 316°
2026-04-27 20:02 45.77699 -111.15513 4480 ft 17 kts 316°
2026-04-27 20:02 45.77791 -111.15640 4480 ft 19 kts 316°
2026-04-27 20:03 45.77841 -111.15742 4482 ft 6 kts 265°
2026-04-27 20:03 45.77823 -111.15788 4480 ft 6 kts 246°
2026-04-27 20:03 45.77836 -111.15848 4480 ft 8 kts 311°
2026-04-27 20:03 45.77884 -111.15917 4481 ft 11 kts 308°
2026-04-27 20:04 45.77875 -111.15975 4480 ft 6 kts 226°
2026-04-27 20:04 45.77857 -111.16002 4483 ft 2 kts 226°
2026-04-27 20:04 45.77853 -111.16007 4480 ft 0 kts 226°